Location: Contre
(49.7477°N, 2.0963°E)
Time: 19:42:51
(UTC+00:00)

Meteor 2-12 Rocket - Visible Passes

Search period start: 09 November 2025 00:00
Search period end: 19 November 2025 00:00
Orbit: 936 x 956 km, 82.5° (Epoch: 08 November)

Date Brightness Start Highest point End Pass type
(mag) Time Alt. Az. Time Alt. Az. Time Alt. Az.
09 Nov 7.6 05:37:22 10° E 05:38:37 11° ENE 05:39:53 10° ENE visible
09 Nov 4.4 18:03:09 10° N 18:09:15 63° ENE 18:15:15 10° SSE visible
09 Nov 6.4 19:48:44 10° NNW 19:53:33 25° W 19:58:20 10° SW visible
10 Nov 7.2 05:51:07 10° ESE 05:54:47 17° ENE 05:58:27 10° NE visible
10 Nov 4.4 18:19:43 10° N 18:25:53 90° E 18:31:58 10° S visible
10 Nov 7.0 20:06:07 10° NW 20:09:48 17° WNW 20:13:28 10° WSW visible
11 Nov 6.9 06:06:13 10° SE 06:11:01 25° E 06:15:49 10° NNE visible
11 Nov 5.3 16:52:03 10° N 16:57:07 26° ENE 17:02:08 10° ESE visible
11 Nov 4.9 18:36:23 10° NNW 18:42:26 63° W 18:48:24 10° S visible
11 Nov 7.4 20:24:36 10° WNW 20:25:57 11° WNW 20:27:17 10° W visible
12 Nov 6.3 06:21:52 10° SSE 06:27:21 36° E 06:32:52 10° NNE visible
12 Nov 4.9 17:08:21 10° N 17:14:00 37° ENE 17:19:35 10° SE visible
12 Nov 5.6 18:53:11 10° NNW 18:58:54 42° W 19:04:32 10° SSW visible
13 Nov 4.5 17:24:47 10° N 17:30:47 53° ENE 17:36:42 10° SSE visible
13 Nov 6.3 19:10:08 10° NNW 19:15:16 29° W 19:20:22 10° SW visible
14 Nov 7.3 05:13:37 10° ESE 05:16:33 14° ENE 05:19:29 10° NE visible
14 Nov 4.3 17:41:18 10° N 17:47:28 78° E 17:53:32 10° SSE visible
14 Nov 6.8 19:27:19 10° NW 19:31:32 20° W 19:35:44 10° SW visible
15 Nov 7.1 05:28:22 10° SE 05:32:45 21° E 05:37:09 10° NE visible
15 Nov 4.6 17:57:57 10° NNW 18:04:03 74° W 18:10:05 10° S visible
15 Nov 7.3 19:45:06 10° NW 19:47:44 13° WNW 19:50:22 10° WSW visible
16 Nov 6.5 05:43:48 10° SE 05:49:03 30° E 05:54:18 10° NNE visible
16 Nov 5.3 18:14:41 10° NNW 18:20:33 50° W 18:26:21 10° SSW visible
17 Nov 5.8 05:59:40 10° SSE 06:05:26 44° E 06:11:13 10° NNE visible
17 Nov 4.7 16:46:27 10° N 16:52:18 46° ENE 16:58:06 10° SE visible
17 Nov 6.1 18:31:34 10° NNW 18:36:58 34° W 18:42:19 10° SSW visible
18 Nov 7.5 04:36:29 10° E 04:38:20 11° ENE 04:40:12 10° ENE visible
18 Nov 5.0 06:15:51 10° S 06:21:55 65° E 06:28:00 10° NNE visible
18 Nov 4.4 17:02:56 10° N 17:09:01 66° ENE 17:15:03 10° SSE visible
18 Nov 6.7 18:48:38 10° NNW 18:53:17 23° W 18:57:54 10° SW visible
